Weather in Urazayevo

Russia / Republic of Tatarstan     55°45′18″N   53°56′07″E
temp.,
°C
wind,
m/s
gust,
m/s
humid.,
%
clouds,
%
prec.,
mm/h
press.,
hPa
HPBL,
m
28 october, thu
thu2800:00+3sw7156799 0.0 1012546
03:00+3sw81561100 0.0 1010649
06:00+3sw91562100 0.0 1009888
09:00+2wsw81596100 0.1 1010607
12:00+4wsw71296100 0.0 1010867
15:00+6wsw61180100 0.1 1011988
18:00+5wsw61281100 0.1 1012564
21:00+6wsw71179100 0.1 1012798
29 october, fri
fri2900:00+5w61089100 0.8 1012970
03:00+1nne7119599 2.3 1016492
06:00−2nne59704 0.1 1020552
09:00−2nne46590 0.1 1024594
12:000n33424 0.0 1026812
15:000nnw11462 0.0 102738
18:00−1wsw1150100 0.0 102810
21:00−1ssw3554100 0.0 1028135
30 october, sat
sat3000:00−1ssw4954100 0.0 1027290
03:000ssw51251100 0.0 1025448
06:00+1sw71564100 0.1 1022561
09:00+3wsw91779100 0.1 1020690
12:00+7wsw91576100 0.0 1018955
15:00+7w81383100 0.0 1019866
18:00+6w71485100 0.1 1020492
21:00+7w6128598 0.1 1020435
31 october, sun
sun3100:00+6w41088100 0.0 1022355
03:00+6w4791100 0.0 1023249
06:00+6w3792100 0.0 1024247
09:00+7w368562 0.0 1025277
12:00+9w5668100 0.0 10251045
15:00+8sw487783 0.0 1024278
18:00+8wsw71288100 0.0 1023521
21:00+7wsw6138856 0.0 1022422
1 november, mon
mon100:00+6wsw6128248 0.0 1022369
03:00+5w5118898 0.0 1022310
06:00+4wsw5118982 0.0 1021286
09:00+6w61181100 0.0 1022415
12:00+8w6116979 0.0 1021553
15:00+8w6126894 0.0 1020493
18:00+6w6137556 0.0 1020395
21:00+5w5117984 0.0 1020305